Regional Weather Roundup
Issued by NWS San Diego, CA

Home | Current Version | Previous Version | Text Only | Print | Product List | Glossary On
Versions: 1 2 3 4 5 6 7 8 9 10 11 12 13 14 15 16 17 18 19 20 21 22 23 24 25 26 27 28 29 30 31 32 33 34 35 36 37 38 39 40 41 42 43 44 45 46 47 48 49 50
000
ASUS46 KSGX 261111
RWRSGX

SAN DIEGO HOURLY WEATHER ROUNDUP
NATIONAL WEATHER SERVICE SAN DIEGO CA
400 AM PDT WED JUL 26 2017

NOTE: "FAIR" INDICATES FEW OR NO CLOUDS BELOW 12,000 FEET WITH NO
SIGNIFICANT WEATHER AND/OR OBSTRUCTIONS TO VISIBILITY.

CAZ042-043-060-061-PZZ750-775-261200-

GREATER SAN DIEGO AREA

CITY           SKY/WX    TMP DP  RH WIND       PRES   REMARKS
SAN DIEGO AP   CLOUDY    72  64  76 W6        30.01S
NATIONAL CITY    N/A     71  66  85 W3        30.01S
CHULA VISTA      N/A     70  66  89 W2        29.91F
IMPERIAL BEACH CLOUDY    70  64  81 W6        30.00F
BROWN FIELD    CLOUDY    69  65  86 CALM      30.00F
MIRAMAR MCAS   CLOUDY    73  64  73 CALM      30.00S
MONTGOMERY FLD CLOUDY    72  64  76 NW5       30.00F
GILLESPIE FLD  CLOUDY    70  64  83 CALM      30.00S

$$

NORTH SAN DIEGO COUNTY

CITY           SKY/WX    TMP DP  RH WIND       PRES   REMARKS
CAMP PENDLETON CLOUDY    61  32  33 CALM      29.99F
OCEANSIDE AP   CLOUDY    71  66  84 NW3       29.98F
OCEANSIDE HBR    N/A     70  66  86 CALM      30.01F
VISTA            N/A     69  63  83 CALM      29.97F
CARLSBAD       CLOUDY    70  66  87 CALM      29.99F
DEL MAR          N/A     69  66  89 CALM      30.01S
LA JOLLA SCRIP   N/A     69  67  92 W1        29.98F
FALLBROOK        N/A     68  67  98 CALM      30.01F
ESCONDIDO        N/A     69  65  86 CALM      30.00F
SAN MARCOS       N/A     68  63  86 CALM      30.01S
POWAY            N/A     69  64  83 CALM      30.00S

$$

EAST SAN DIEGO COUNTY

CITY           SKY/WX    TMP DP  RH WIND       PRES   REMARKS
RAMONA         CLOUDY    66  65  96 CALM      30.02F
SANTEE LAKES     N/A     69  65  85 CALM      29.98F
LA MESA          N/A     68  64  87 CALM      29.93S
JAMUL            N/A     66  63  90 CALM      29.99S
DESCANSO N       N/A     63  60  90 NE3       29.88S
CAMPO            N/A     62  61  96 CALM      30.02S

$$

ORANGE COUNTY AND THE LOS ANGELES BASIN

CITY           SKY/WX    TMP DP  RH WIND       PRES   REMARKS
JOHN WAYNE AP  CLOUDY    68  64  87 W5        30.00S
LAKE FOREST FR   N/A     65  60  83 CALM      29.87F
HUNTINGTON BCH   N/A     67  64  89 W3        30.01F
LOS ALAMITOS   CLOUDY    67  62  86 CALM      29.99S
FULLERTON      CLEAR     69  63  81 W3        29.99S
LONG BEACH     CLOUDY    69  62  78 NW7       29.99F
L.A. AP        MOCLDY    67  63  87 W9        30.00S
L.A. DOWNTOWN  MOCLDY    68  63  84 VRB3      29.99F

$$

THE INLAND EMPIRE

CITY           SKY/WX    TMP DP  RH WIND       PRES   REMARKS
CORONA         CLEAR     66  62  87 W3        30.00F
CHINO          CLEAR     67  61  81 W5        30.01F
ONTARIO        PTCLDY    68  61  78 W6        30.00F
SAN BERNARDINO FAIR      70  60  70 CALM      30.01S
RIVERSIDE AP   CLEAR     67  62  84 W7        30.00F
MORENO VALLEY    N/A     68  63  84 CALM      28.12S
MARCH ARB      CLEAR     66  62  85 W3        30.01F
HORSETHIEF CYN   N/A     66  58  74 CALM      29.98S
PERRIS           N/A     68  61  79 CALM      30.01S
HEMET EAST       N/A     67  60  77 CALM      30.01F
FRENCH VALLEY  FAIR      66  63  88 SW3       30.02F
TEMECULA         N/A     66  64  93 CALM      30.06F

$$

SAN BERNARDINO AND RIVERSIDE COUNTY MOUNTAINS

CITY           SKY/WX    TMP DP  RH WIND       PRES   REMARKS
BIG BEAR AP    CLEAR     52  48  87 CALM      30.32F
ANGELUS OAKS     N/A     62  54  73 CALM      29.83F
PINE COVE        N/A     64  56  74 CALM      29.90F

$$

SOUTHERN DESERT INCLUDING THE COACHELLA VALLEY

CITY           SKY/WX    TMP DP  RH WIND       PRES   REMARKS
PALM SPRINGS   CLEAR     85  63  47 CALM      29.90S
THOUSAND PALMS   N/A     87  62  43 NW2       29.84F
PALM DESERT      N/A     83  64  51 CALM        N/A
THERMAL        CLEAR     78  64  61 CALM      29.83S
BLYTHE         CLEAR     84  51  31 E5        29.88R
IMPERIAL AP    CLEAR     82  60  47 E5        29.83R
EL CENTRO NAS  CLEAR     79  63  57 CALM      29.85R
YUMA AZ        PTCLDY    85  46  25 CALM      29.85F

$$

UPPER DESERT

CITY           SKY/WX    TMP DP  RH WIND       PRES   REMARKS
VICTORVILLE AP CLEAR     72  55  56 CALM      30.06S
HESPERIA         N/A     70  58  65 CALM      29.99F
PALMDALE       CLEAR     73  56  54 S7        30.04S
LANCASTER      CLEAR     73  53  49 W7        30.03S
EDWARDS AFB    PTCLDY    74  55  50 S8        30.00S
DAGGETT        PTCLDY    75  63  66 W6        29.98F
29 PALMS N     PTCLDY    82  63  52 SW3       30.05F
NEEDLES        CLOUDY    85  70  60 N8        29.95F

$$

REGIONAL REPORTS

CITY           SKY/WX    TMP DP  RH WIND       PRES   REMARKS
SANTA BARBARA  CLEAR     62  59  90 CALM      29.99S
SANDBERG       CLEAR     73  49  42 NW9       30.17S
LAS VEGAS NV   PTCLDY    79  66  64 NW3       30.05S
PHOENIX AZ     PTCLDY    85  68  56 SW3       29.93S
TIJUANA        CLOUDY    68  63  83 CALM      30.02F FOG
ENSENADA NW      N/A     68  32  26 N3        29.97F

$$

OFFSHORE ISLANDS

CITY           SKY/WX    TMP DP  RH WIND       PRES   REMARKS
CATALINA ARPT  FOG       59  59 100 SW6       30.02F VSB 1/4
SAN NICOLAS IS CLOUDY    59  32  36 W7        30.01S

$$

MARINE AND OFFSHORE BUOY REPORTS

STATION/POSITION SKY/WX   TEMP    WIND        PRES    VSBY  SWELL
                          AIR SEA DIR/SP/G                  HT/PER/DIR
                          (F)     (DEG/KT/KT) (MB)    (MI)  (FT/S/D)
TANNER BANKS               63 65  290/  6/  8 1016.2          3/240/11
S CLEMENTE BASIN              72  280/  6/  8 1016.0F         3/180/10
SAN NICOLAS IS.               67                N/A           2/200/11
SO. S. ROSA ISLA           61 61  320/  6/  8 1016.1R         5/300/ 9
W. S. BARBARA CH           61 62  290/ 12/ 14 1015.4F         3/290/ 9
M. S. BARBARA CH           63 65  240/ 10/ 12 1016.3F         2/260/ 9
S. MONICA BASIN               72  240/  6/  8 1015.6R         2/190/11
S PEDRO CHANNEL               68                N/A           2/190/11
CMP PENDLETON NS              76                N/A           2/210/13
OCEANSIDE OFFSHR              74                N/A           2/220/11
TORREY PINES OTR              74                N/A           2/200/13
SAN DIEGO BAY                 77              1016.0F
POINT LOMA SOUTH              71                N/A           2/210/13

$$





USA.gov is the U.S. government's official web portal to all federal, state and local government web resources and services.